Total_Precipitation_Accumulation
1.42 1.43 1.43 1.41 1.32 1.30 1.32 1.29 1.26 1.25 1.29 1.25 1.15 1.09 1.16 1.14 1.10 1.16 1.20 1.26 1.35 1.50 1.65 1.78 1.94 2.20 2.50 2.55 2.53 2.44 2.37 2.27 2.02 1.79 1.59 1.49 1.78 1.88 1.79 1.66 1.63 1.59 1.37
1.35 1.39 1.36 1.26 1.18 1.17 1.16 1.08 0.96 0.90 0.91 1.01 1.12 1.06 1.03 1.05 1.07 1.13 1.12 1.15 1.21 1.33 1.45 1.58 1.77 2.05 2.40 2.61 2.70 2.59 2.47 2.37 2.22 2.05 1.72 1.46 1.57 1.88 2.00 1.93 1.74 1.58 1.42
1.35 1.24 1.14 1.07 1.06 1.09 1.02 0.95 0.90 0.78 0.73 0.74 0.84 0.84 0.92 1.01 1.04 1.08 1.09 1.12 1.16 1.25 1.41 1.49 1.55 1.76 1.96 2.15 2.34 2.47 2.45 2.45 2.42 2.17 1.87 1.60 1.53 1.68 1.92 1.91 1.84 1.83 1.58
1.41 1.32 1.19 1.09 1.06 1.05 1.01 0.98 0.91 0.85 0.81 0.82 0.92 0.96 0.91 0.90 0.95 1.03 1.07 1.06 1.06 1.08 1.16 1.26 1.37 1.44 1.63 1.77 1.87 2.09 2.30 2.55 2.60 2.45 2.18 1.85 1.74 1.62 1.70 1.87 1.94 1.89 1.80
1.42 1.41 1.27 1.21 1.17 1.05 0.99 1.01 0.98 0.98 0.91 0.89 0.96 1.05 1.10 1.06 1.03 1.09 1.05 1.04 1.06 1.04 1.08 1.07 1.15 1.21 1.30 1.50 1.53 1.76 2.07 2.37 2.46 2.53 2.41 2.09 1.83 1.68 1.44 1.55 1.81 2.03 2.03
1.10 1.19 1.17 1.09 0.99 0.96 0.97 0.95 0.91 0.89 0.84 0.78 0.78 0.83 0.91 0.99 1.27 1.21 0.99 0.92 0.97 1.02 1.06 1.05 1.09 1.05 1.04 1.13 1.27 1.39 1.68 1.92 2.06 2.14 2.17 2.00 1.79 1.66 1.61 1.57 1.65 1.80 1.85
0.85 0.97 0.96 0.91 0.82 0.82 0.86 0.84 0.80 0.74 0.73 0.69 0.68 0.65 0.68 0.88 1.03 0.85 0.81 0.81 0.91 1.02 1.09 1.14 1.10 1.05 1.09 1.09 1.14 1.16 1.21 1.41 1.64 1.85 1.88 1.78 1.85 1.76 1.69 1.58 1.59 1.59 1.56
0.60 0.67 0.70 0.72 0.70 0.71 0.72 0.72 0.77 0.73 0.66 0.63 0.66 0.71 0.71 0.77 0.88 0.74 0.69 0.72 0.90 1.03 1.03 1.00 1.09 1.13 1.17 1.23 1.15 1.20 1.13 1.13 1.24 1.27 1.41 1.66 1.85 2.02 1.99 1.88 1.87 1.78 1.68
0.42 0.47 0.51 0.54 0.58 0.63 0.65 0.69 0.81 0.80 0.73 0.70 0.78 0.83 0.77 0.73 0.82 0.78 0.78 0.84 0.96 1.04 1.01 1.03 1.12 1.17 1.35 1.41 1.29 1.34 1.28 1.25 1.24 1.36 1.44 1.57 1.69 1.81 1.97 2.01 1.95 1.93 1.79
0.39 0.41 0.46 0.47 0.50 0.57 0.65 0.68 0.67 0.65 0.67 0.72 0.73 0.68 0.67 0.74 0.87 0.82 0.88 0.98 1.09 1.19 1.16 1.17 1.40 1.37 1.37 1.31 1.24 1.40 1.36 1.22 1.15 1.19 1.25 1.35 1.40 1.51 1.65 1.70 1.87 2.00 1.91
0.42 0.44 0.45 0.46 0.48 0.52 0.52 0.49 0.51 0.57 0.56 0.53 0.53 0.57 0.61 0.76 0.82 0.87 1.03 1.06 1.12 1.27 1.29 1.26 1.22 1.40 1.34 1.26 1.23 1.25 1.40 1.29 1.20 1.23 1.22 1.22 1.25 1.30 1.36 1.44 1.59 1.77 1.88
0.37 0.37 0.36 0.37 0.38 0.40 0.42 0.40 0.39 0.45 0.49 0.51 0.53 0.56 0.60 0.65 0.72 0.79 0.92 1.02 1.08 1.24 1.32 1.22 1.12 1.37 1.33 1.24 1.14 1.15 1.31 1.37 1.35 1.39 1.38 1.30 1.21 1.17 1.17 1.24 1.34 1.47 1.60
0.35 0.30 0.31 0.31 0.32 0.31 0.34 0.38 0.41 0.42 0.44 0.45 0.48 0.53 0.62 0.65 0.66 0.77 0.81 0.87 1.00 1.16 1.25 1.28 1.25 1.27 1.19 1.12 1.20 1.23 1.24 1.25 1.34 1.40 1.30 1.17 1.11 1.10 1.17 1.28 1.40 1.48 1.56
0.32 0.29 0.29 0.29 0.29 0.28 0.30 0.34 0.36 0.38 0.39 0.43 0.48 0.52 0.57 0.62 0.63 0.75 0.86 0.89 0.98 1.05 1.06 1.12 1.12 1.07 1.07 1.06 1.11 1.20 1.23 1.28 1.32 1.26 1.15 1.03 1.05 1.12 1.16 1.20 1.36 1.51 1.65
0.29 0.29 0.27 0.30 0.30 0.27 0.26 0.29 0.34 0.38 0.46 0.51 0.53 0.55 0.55 0.54 0.62 0.76 0.89 0.98 1.12 1.26 1.27 1.13 1.06 1.03 1.01 0.99 1.01 1.06 1.13 1.14 1.16 1.14 1.11 1.09 1.07 1.10 1.11 1.11 1.23 1.31 1.34
0.28 0.28 0.27 0.26 0.27 0.28 0.30 0.29 0.33 0.37 0.47 0.53 0.57 0.57 0.56 0.61 0.63 0.62 0.70 0.88 1.09 1.39 1.63 1.54 1.46 1.32 1.20 1.08 1.03 0.99 0.96 0.99 1.03 1.07 1.08 1.07 1.10 1.15 1.19 1.18 1.21 1.26 1.27
0.26 0.27 0.27 0.26 0.26 0.27 0.30 0.34 0.37 0.35 0.34 0.37 0.43 0.50 0.55 0.60 0.59 0.63 0.67 0.72 0.88 1.21 1.56 1.57 1.53 1.33 1.17 1.09 0.99 0.89 0.84 0.87 0.96 0.98 1.01 1.04 1.06 1.11 1.17 1.17 1.16 1.21 1.25
0.29 0.27 0.28 0.29 0.30 0.33 0.34 0.37 0.48 0.54 0.48 0.38 0.39 0.44 0.52 0.59 0.64 0.74 0.86 0.90 0.92 1.06 1.17 1.20 1.15 1.09 1.01 0.88 0.83 0.82 0.78 0.83 0.92 0.96 0.97 0.98 1.01 1.07 1.10 1.16 1.17 1.19 1.25
0.29 0.32 0.34 0.37 0.36 0.38 0.42 0.46 0.50 0.44 0.43 0.44 0.42 0.41 0.48 0.55 0.62 0.68 0.76 0.77 0.74 0.78 0.80 0.78 0.74 0.74 0.74 0.70 0.68 0.68 0.71 0.75 0.81 0.90 0.94 0.93 0.94 0.99 1.05 1.11 1.19 1.29 1.29
0.24 0.34 0.39 0.45 0.42 0.39 0.45 0.46 0.43 0.41 0.45 0.48 0.45 0.44 0.48 0.49 0.50 0.57 0.63 0.63 0.59 0.57 0.56 0.57 0.58 0.58 0.61 0.61 0.64 0.66 0.68 0.71 0.76 0.83 0.87 0.93 0.95 0.94 0.97 1.05 1.13 1.20 1.22
0.26 0.30 0.35 0.42 0.44 0.42 0.48 0.48 0.45 0.43 0.45 0.48 0.48 0.51 0.55 0.54 0.53 0.53 0.53 0.53 0.55 0.58 0.57 0.57 0.56 0.58 0.61 0.62 0.66 0.71 0.75 0.78 0.80 0.87 0.89 0.93 0.99 1.02 1.02 1.05 1.09 1.10 1.16
0.27 0.29 0.31 0.37 0.41 0.44 0.47 0.47 0.49 0.46 0.43 0.44 0.46 0.49 0.53 0.52 0.51 0.49 0.47 0.49 0.50 0.54 0.60 0.64 0.65 0.65 0.63 0.64 0.69 0.75 0.77 0.79 0.82 0.87 0.93 0.96 0.98 1.00 1.03 1.06 1.11 1.12 1.13
0.27 0.30 0.31 0.33 0.36 0.43 0.44 0.43 0.47 0.48 0.46 0.46 0.47 0.46 0.48 0.48 0.48 0.51 0.50 0.50 0.54 0.57 0.56 0.59 0.65 0.66 0.63 0.63 0.66 0.73 0.80 0.82 0.85 0.92 1.00 1.01 0.98 0.99 1.02 1.03 1.05 1.11 1.14
0.30 0.32 0.34 0.36 0.38 0.43 0.44 0.44 0.45 0.43 0.44 0.47 0.48 0.46 0.48 0.53 0.53 0.50 0.51 0.56 0.58 0.58 0.56 0.56 0.58 0.62 0.63 0.65 0.67 0.70 0.73 0.80 0.86 0.92 0.99 1.05 1.04 1.01 1.04 1.10 1.11 1.13 1.19
0.33 0.36 0.38 0.40 0.43 0.47 0.48 0.46 0.45 0.44 0.45 0.48 0.45 0.45 0.46 0.49 0.53 0.53 0.54 0.58 0.60 0.59 0.58 0.58 0.58 0.59 0.62 0.64 0.68 0.70 0.80 0.87 0.89 0.92 0.99 1.09 1.10 1.08 1.08 1.16 1.23 1.26 1.30
0.36 0.39 0.41 0.44 0.47 0.51 0.52 0.50 0.49 0.47 0.47 0.46 0.44 0.46 0.50 0.53 0.56 0.57 0.59 0.62 0.64 0.63 0.61 0.62 0.62 0.62 0.62 0.63 0.68 0.79 0.84 0.80 0.82 0.90 0.97 1.09 1.19 1.20 1.20 1.21 1.22 1.26 1.32